Simultaneous Nadir Overpasses (SNOs) Predictions

Prediction of SNOs between GOES-16 and NOAA-20 Satellite Orbit:

Table of predicted SNOs for the next 14.0 days since TLE Epoch: 4/18/2025
Index Date Time (GOES-16) GOES-16 Lat,Lon NOAA-20 Lat,Lon Distance(km) Time Diff (sec)
1 04/19/2025 06:40:39 -0.05, -79.64 -0.05, -79.61 3.60 80
2 04/21/2025 18:43:59 0.04, -80.91 0.14, -80.45 52.47 80
3 04/23/2025 07:08:32 -0.03, -81.67 0.86, -85.77 466.60 80
4 04/24/2025 06:47:09 -0.03, -82.16 -0.21, -81.25 103.47 80
5 04/25/2025 19:11:50 0.03, -82.95 -0.81, -86.60 416.61 80
6 04/26/2025 18:50:29 0.03, -83.45 0.32, -82.10 153.75 80
7 04/28/2025 07:15:01 -0.03, -84.21 0.67, -87.41 364.74 80
8 04/29/2025 06:53:40 -0.03, -84.71 -0.46, -82.91 205.50 80
9 04/30/2025 19:18:20 0.03, -85.49 -0.60, -88.25 314.43 80
10 05/01/2025 18:56:59 0.03, -86.00 0.54, -83.75 256.19 80
